ZHUHAI-1 02 (CAS-4B) (42759 NORAD) Tracking and Keplerian Element Data

This shows tracking and keplerian element data for the satellite.

Feedback or suggestion? Click here.




ElementValue
Catalog42759
NameZHUHAI-1 02 (CAS-4B)
Epoch Orbit38600
Epoch Day160.0263146
Epoch Year2024
RAAN278.3255
Inclination43.0176
Eccentricity0.0013264
Argument of Perigee287.3876
Mean Anonmoly72.5526
Mean Motion15.27958364
Decay Rate0.00023552
L11 42759U 17034B 24160.02631460 .00023552 00000+0 85081-3 0 9998
L22 42759 43.0176 278.3255 0013264 287.3876 72.5526 15.27958364386003



Live tracking and technical data element details for ZHUHAI-1 02 (CAS-4B) (NORAD 42759). ZHUHAI-1 02 (CAS-4B) can be tracked NOW for your location showing map with azimuth and elevation plus other details from your city location.







IsCatalogInMostPopularTable: catalog: 42759, numindb: 992
Update: records affected: 1



GetName: 42759 ZHUHAI-1 02 (CAS-4B)

Hit Count: updated at: Tue, 17 Sep 2024 10:59:11 GMT